GW1174 Weather Reports


Display with metric or nautical units.
time (UTC)temp
F
wind
direction
speed
MPH
gust
MPH
rain 1hr
in
rain 24hr
in
rain mn
in
humidity
%
barometer
mb
20260503014016 43 0.0 0.0 0.00 0.00 0.00 79 1016.7
20260503013017 43 0.0 0.0 0.00 0.00 0.00 79 1016.7
20260503012038 43 0.0 0.0 0.00 0.00 0.00 79 1016.7
20260503011018 43 0.0 0.0 0.00 0.00 0.00 79 1016.8
20260503010017 44 0.0 0.0 0.00 0.00 0.00 78 1016.7
20260503005017 44 0.0 0.0 0.00 0.00 0.00 77 1016.7
20260503004017 44 0.0 0.0 0.00 0.00 0.00 77 1016.8
20260503003017 44 0.0 0.0 0.00 0.00 0.00 77 1016.8
20260503002041 44 0.0 0.0 0.00 0.00 0.00 76 1016.8
20260503001018 45 0.0 0.0 0.00 0.00 0.00 75 1016.9
20260503000017 45 0.0 0.0 0.00 0.00 0.00 75 1017.0
20260502235018 45 0.0 0.0 0.00 0.00 0.00 74 1016.9
20260502234018 46 0.0 0.0 0.00 0.00 0.00 74 1017.1
20260502233017 46 0.0 0.0 0.00 0.00 0.00 74 1017.0
20260502232017 46 0.0 0.0 0.00 0.00 0.00 74 1017.1
20260502231017 46 0.0 0.0 0.00 0.00 0.00 73 1017.1
20260502230017 47 0.0 0.0 0.00 0.00 0.00 72 1017.1
20260502225017 48 0.0 0.0 0.00 0.00 0.00 71 1017.2
20260502224037 48 0.0 0.0 0.00 0.00 0.00 71 1017.3
20260502223017 48 0.0 0.0 0.00 0.00 0.00 71 1017.3
20260502222037 48 0.0 0.0 0.00 0.00 0.00 69 1017.4
20260502221017 49 0.0 0.0 0.00 0.00 0.00 68 1017.5
20260502220017 49 0.0 0.0 0.00 0.00 0.00 68 1017.3
20260502215016 50 0.0 0.0 0.00 0.00 0.00 67 1017.3
20260502214016 50 0.0 0.0 0.00 0.00 0.00 67 1017.3
20260502213016 51 0.0 0.0 0.00 0.00 0.00 66 1017.2
20260502212016 51 0.0 0.0 0.00 0.00 0.00 65 1017.5
20260502211016 52 0.0 0.0 0.00 0.00 0.00 64 1017.5
20260502210016 52 0.0 0.0 0.00 0.00 0.00 63 1017.5
20260502205016 53 0.0 0.0 0.00 0.00 0.00 61 1017.6
20260502204016 53 0.0 0.0 0.00 0.00 0.00 62 1017.4
20260502203036 54 0.0 0.0 0.00 0.00 0.00 63 1017.6
20260502202016 55 0.0 0.0 0.00 0.00 0.00 60 1017.6
20260502201016 56 0.0 0.0 0.00 0.00 0.00 56 1017.7
20260502200016 56 0.0 0.0 0.00 0.00 0.00 54 1017.6
20260502195036 57 0.0 0.0 0.00 0.00 0.00 56 1017.9
20260502194016 58 0.0 0.0 0.00 0.00 0.00 53 1017.7
20260502193019 59 0.0 0.0 0.00 0.00 0.00 52 1017.8
20260502192016 60 0.0 0.0 0.00 0.00 0.00 49 1017.8
20260502191056 61 0.0 0.0 0.00 0.00 0.00 47 1017.6
20260502190056 62 0.0 0.0 0.00 0.00 0.00 47 1017.7
20260502185016 64 0.0 0.0 0.00 0.00 0.00 44 1017.4
20260502184016 65 0.0 0.0 0.00 0.00 0.00 44 1017.3
20260502182016 67 0.0 0.0 0.00 0.00 0.00 42 1017.1
20260502181015 68 0.0 0.0 0.00 0.00 0.00 39 1016.8
20260502164017 75 158 2.0 5.0 0.00 0.00 0.00 31 1017.3
20260502163017 75 180 3.0 6.0 0.00 0.00 0.00 29 1017.4
20260502162037 75 158 5.0 8.0 0.00 0.00 0.00 28 1017.7
20260502161021 76 158 4.0 8.0 0.00 0.00 0.00 28 1017.7
20260502151017 78 180 3.0 7.0 0.00 0.00 0.00 28 1018.6
20260502123017 75 158 3.0 8.0 0.00 0.00 0.00 33 1020.9
20260502122017 75 158 4.0 9.0 0.00 0.00 0.00 32 1020.9
20260502121017 76 225 2.0 4.0 0.00 0.00 0.00 31 1021.2
20260502115017 74 158 2.0 6.0 0.00 0.00 0.00 32 1021.2
20260502114017 75 158 3.0 10.0 0.00 0.00 0.00 35 1021.5
20260502113057 74 158 3.0 8.0 0.00 0.00 0.00 35 1021.7
20260502112017 73 158 4.0 9.0 0.00 0.00 0.00 36 1021.8
20260502111017 72 158 4.0 9.0 0.00 0.00 0.00 37 1021.9
20260502110017 72 180 4.0 8.0 0.00 0.00 0.00 39 1021.9
20260502105017 72 158 6.0 12.0 0.00 0.00 0.00 39 1022.2
20260502104017 71 158 3.0 8.0 0.00 0.00 0.00 36 1022.2
20260502103017 71 203 5.0 11.0 0.00 0.00 0.00 36 1022.4
20260502102017 71 180 4.0 9.0 0.00 0.00 0.00 37 1022.7
20260502101016 71 158 3.0 7.0 0.00 0.00 0.00 38 1022.7
20260502091016 69 158 5.0 10.0 0.00 0.00 0.00 42 1023.3
20260502071016 60 0.0 0.0 0.00 0.00 0.00 62 1024.2
20260502070016 59 45 1.0 3.0 0.00 0.00 0.00 66 1024.2
20260502065016 56 0.0 1.0 0.00 0.00 0.00 75 1024.2
20260502064016 54 0.0 0.0 0.00 0.00 0.00 81 1024.2
20260502063016 50 0.0 2.0 0.00 0.00 0.00 87 1024.1
20260502062016 45 0.0 0.0 0.00 0.00 0.00 89 1023.9
20260502061016 43 0.0 0.0 0.00 0.00 0.00 89 1023.9
20260502060016 41 0.0 0.0 0.00 0.00 0.00 89 1023.8
20260502055019 40 0.0 0.0 0.00 0.00 0.00 89 1023.8
20260502054016 39 0.0 0.0 0.00 0.00 0.00 89 1023.7
20260502053016 39 0.0 0.0 0.00 0.00 0.00 89 1023.7
20260502052016 38 0.0 0.0 0.00 0.00 0.00 88 1023.7
20260502051021 37 0.0 0.0 0.00 0.00 0.00 88 1023.8
20260502050016 37 0.0 0.0 0.00 0.00 0.00 88 1023.7
20260502045016 37 0.0 0.0 0.00 0.00 0.00 88 1023.8
20260502044016 37 0.0 0.0 0.00 0.00 0.00 87 1023.7
20260502043016 37 0.0 0.0 0.00 0.00 0.00 87 1023.8
20260502042016 37 0.0 0.0 0.00 0.00 0.00 87 1024.0
20260502041016 37 0.0 0.0 0.00 0.00 0.00 87 1024.1
20260502040016 37 0.0 0.0 0.00 0.00 0.00 86 1024.0
20260502035016 37 0.0 0.0 0.00 0.00 0.00 86 1023.9
20260502034016 37 0.0 0.0 0.00 0.00 0.00 86 1024.0
20260502033036 38 0.0 0.0 0.00 0.00 0.00 86 1024.1
20260502032016 38 0.0 0.0 0.00 0.00 0.00 85 1024.1
20260502031055 38 0.0 0.0 0.00 0.00 0.00 85 1024.2
20260502030016 38 0.0 0.0 0.00 0.00 0.00 85 1024.2
20260502025015 39 0.0 0.0 0.00 0.00 0.00 85 1024.3
20260502024016 39 0.0 0.0 0.00 0.00 0.00 85 1024.3
20260502023018 39 0.0 0.0 0.00 0.00 0.00 84 1024.3
20260502022017 39 0.0 0.0 0.00 0.00 0.00 84 1024.2
20260502021017 40 0.0 0.0 0.00 0.00 0.00 83 1024.3
20260502020017 40 0.0 0.0 0.00 0.00 0.00 84 1024.4
20260502015017 41 0.0 0.0 0.00 0.00 0.00 84 1024.5